Weather History for Rochelle, IL

Change the Weather History Date:

Monday, October 8, 2012

  Actual Average (KRFD) Record (KRFD)
Temperature  
Mean Temperature 42 °F 54 °F  
Max Temperature 61 °F 66 °F 88 °F (1916)
Min Temperature 23 °F 43 °F 24 °F (1987)
Degree Days  
Heating Degree Days 24 11  
Month to date heating degree days 79  
Since 1 July heating degree days 210  
Cooling Degree Days 0 1  
Month to date cooling degree days 8  
Year to date cooling degree days 819  
Moisture  
Dew Point 27 °F    
Average Humidity 58    
Maximum Humidity 90    
Minimum Humidity 28    
Precipitation  
Precipitation 0.00 in 0.09 in 0.52 in (2004)
Month to date precipitation 0.73  
Year to date precipitation 29.74  
Snow  
Snow 0.00 in 0.00 in T in (1915)
Month to date snowfall 0.0  
Since 1 July snowfall 0.0  
Since 1 September snowfall 0.0  
Snow Depth -    
Sea Level Pressure  
Sea Level Pressure 30.06 in    
Wind  
Wind Speed 8 mph (South)    
Max Wind Speed 23 mph    
Max Gust Speed 31 mph    
Visibility 10 miles    
Events      
T = Trace of Precipitation, MM = Missing Value Source: NWS Daily Summary

Daily Weather History Graph

Daily Weather History Graph

Search for Another Location

Airport:

Trip Planner

Search our weather history database for the weather conditions in past years. The results will help you decide how hot, cold, wet, or windy it might be!

Date:

Astronomy

Oct. 08, 2012 Rise Set
Actual Time 7:01 AM CDT 6:25 PM CDT
Civil Twilight 6:33 AM CDT 6:53 PM CDT
Nautical Twilight 6:01 AM CDT 7:25 PM CDT
Astronomical Twilight 5:28 AM CDT 7:57 PM CDT
Moon No Moon Rise 2:20 PM CDT (10/8)
Length of Visible Light 12h 19m
Length of Day
11h 23m
Last Quarter, 46% of the Moon is Illuminated
Oct 8
Last Quarter
Oct 15
New
Oct 21
First Quarter
Oct 29
Full
Nov 6
Last Quarter

Hourly Weather History & Observations

Time (CDT) Temp. Windchill Dew Point Humidity Pressure Visibility Wind Dir Wind Speed Gust Speed Precip Events Conditions
12:15 AM 25.5 °F - 21.7 °F 86% 30.13 in 10.0 mi Calm Calm - N/A   Clear
12:35 AM 24.8 °F 20.5 °F 21.6 °F 87% 30.13 in 10.0 mi South 3.5 mph - N/A   Clear
12:55 AM 23.4 °F 18.9 °F 20.8 °F 90% 30.13 in 10.0 mi South 3.5 mph - N/A   Clear
1:15 AM 23.7 °F 16.6 °F 21.2 °F 90% 30.13 in 10.0 mi South 5.8 mph - N/A   Clear
1:35 AM 23.7 °F 16.6 °F 21.2 °F 90% 30.13 in 10.0 mi South 5.8 mph - N/A   Clear
1:55 AM 23.9 °F 15.8 °F 21.4 °F 90% 30.13 in 10.0 mi South 6.9 mph - N/A   Clear
2:15 AM 24.8 °F 17.9 °F 21.9 °F 89% 30.13 in 10.0 mi South 5.8 mph - N/A   Clear
2:35 AM 24.8 °F 17.9 °F 21.7 °F 88% 30.13 in 10.0 mi South 5.8 mph - N/A   Clear
2:55 AM 24.8 °F 17.9 °F 21.9 °F 89% 30.12 in 10.0 mi South 5.8 mph - N/A   Clear
3:15 AM 25.0 °F 17.1 °F 21.7 °F 87% 30.11 in 10.0 mi South 6.9 mph - N/A   Clear
3:35 AM 26.4 °F 19.8 °F 22.6 °F 86% 30.11 in 10.0 mi South 5.8 mph - N/A   Clear
3:55 AM 26.6 °F 21.2 °F 23.0 °F 86% 30.11 in 10.0 mi South 4.6 mph - N/A   Clear
4:15 AM 26.6 °F 19.1 °F 23.0 °F 86% 30.11 in 10.0 mi South 6.9 mph - N/A   Clear
4:35 AM 27.0 °F 20.5 °F 23.4 °F 86% 30.12 in 10.0 mi South 5.8 mph - N/A   Clear
4:55 AM 27.5 °F 21.1 °F 23.9 °F 86% 30.12 in 10.0 mi South 5.8 mph - N/A   Clear
5:15 AM 27.1 °F 20.7 °F 23.9 °F 88% 30.12 in 10.0 mi South 5.8 mph - N/A   Clear
5:35 AM 27.9 °F 20.6 °F 24.8 °F 88% 30.11 in 10.0 mi SSE 6.9 mph - N/A   Clear
5:55 AM 29.7 °F 22.8 °F 25.9 °F 86% 30.11 in 10.0 mi South 6.9 mph - N/A   Clear
6:15 AM 29.7 °F 22.0 °F 26.6 °F 88% 30.11 in 10.0 mi South 8.1 mph - N/A   Clear
6:35 AM 30.6 °F 23.1 °F 27.0 °F 86% 30.11 in 10.0 mi South 8.1 mph - N/A   Clear
6:55 AM 31.6 °F 24.4 °F 27.5 °F 85% 30.12 in 10.0 mi South 8.1 mph - N/A   Clear
7:15 AM 31.6 °F 24.4 °F 27.9 °F 86% 30.12 in 10.0 mi South 8.1 mph - N/A   Clear
7:35 AM 32.5 °F 27.1 °F 28.4 °F 85% 30.11 in 10.0 mi South 5.8 mph - N/A   Clear
7:55 AM 33.3 °F 27.1 °F 28.8 °F 84% 30.12 in 10.0 mi South 6.9 mph - N/A   Clear
8:15 AM 36.0 °F 29.6 °F 30.6 °F 81% 30.11 in 10.0 mi South 8.1 mph - N/A   Clear
8:35 AM 39.7 °F 31.9 °F 30.4 °F 69% 30.12 in 10.0 mi South 13.8 mph 18.4 mph N/A   Clear
8:55 AM 41.5 °F 35.0 °F 30.6 °F 65% 30.12 in 10.0 mi SSW 11.5 mph - N/A   Clear
9:15 AM 43.9 °F 38.3 °F 30.9 °F 60% 30.12 in 10.0 mi SSW 10.4 mph - N/A   Clear
9:55 AM 48.4 °F - 30.2 °F 49% 30.11 in 10.0 mi SSW 12.7 mph 19.6 mph N/A   Clear
10:15 AM 50.2 °F - 30.2 °F 46% 30.11 in 10.0 mi SSW 15.0 mph 20.7 mph N/A   Clear
10:35 AM 52.2 °F - 29.7 °F 42% 30.10 in 10.0 mi SW 16.1 mph 19.6 mph N/A   Clear
10:55 AM 53.1 °F - 29.3 °F 40% 30.10 in 10.0 mi SW 13.8 mph 19.6 mph N/A   Clear
11:15 AM 54.7 °F - 29.1 °F 38% 30.09 in 10.0 mi SSW 12.7 mph 20.7 mph N/A   Clear
11:35 AM 55.8 °F - 27.0 °F 33% 30.09 in 10.0 mi SW 15.0 mph 23.0 mph N/A   Clear
11:55 AM 56.3 °F - 27.5 °F 33% 30.08 in 10.0 mi SSW 16.1 mph 24.2 mph N/A   Clear
12:15 PM 57.2 °F - 27.3 °F 32% 30.07 in 10.0 mi SW 16.1 mph 25.3 mph N/A   Clear
12:35 PM 57.6 °F - 26.8 °F 31% 30.06 in 10.0 mi WSW 19.6 mph 27.6 mph N/A   Clear
12:55 PM 57.9 °F - 27.5 °F 31% 30.05 in 10.0 mi SW 15.0 mph 27.6 mph N/A   Clear
1:15 PM 58.6 °F - 27.5 °F 30% 30.04 in 10.0 mi SSW 18.4 mph 26.5 mph N/A   Clear
1:35 PM 59.5 °F - 27.5 °F 30% 30.03 in 10.0 mi SW 16.1 mph 24.2 mph N/A   Clear
1:55 PM 59.5 °F - 27.1 °F 29% 30.02 in 10.0 mi SW 17.3 mph 26.5 mph N/A   Clear
2:15 PM 59.4 °F - 27.3 °F 29% 30.01 in 10.0 mi SSW 23.0 mph 31.1 mph N/A   Clear
2:35 PM 60.3 °F - 26.8 °F 28% 30.00 in 10.0 mi SW 16.1 mph 24.2 mph N/A   Clear
3:15 PM 60.4 °F - 27.1 °F 28% 29.99 in 10.0 mi SSW 12.7 mph 25.3 mph N/A   Clear
3:35 PM 60.3 °F - 26.6 °F 28% 29.99 in 10.0 mi SSW 15.0 mph 25.3 mph N/A   Clear
3:55 PM 59.9 °F - 26.6 °F 28% 29.98 in 10.0 mi SSW 17.3 mph 26.5 mph N/A   Clear
4:15 PM 59.9 °F - 27.0 °F 29% 29.98 in 10.0 mi SSW 13.8 mph 24.2 mph N/A   Clear
4:35 PM 59.2 °F - 27.5 °F 30% 29.97 in 10.0 mi SSW 16.1 mph 25.3 mph N/A   Clear
4:55 PM 58.6 °F - 27.3 °F 30% 29.98 in 10.0 mi SSW 16.1 mph 24.2 mph N/A   Clear
5:15 PM 58.1 °F - 27.5 °F 31% 29.97 in 10.0 mi SSW 16.1 mph 23.0 mph N/A   Clear
5:35 PM 57.4 °F - 27.7 °F 32% 29.98 in 10.0 mi SSW 16.1 mph 21.9 mph N/A   Clear
5:55 PM 56.1 °F - 27.7 °F 34% 29.98 in 10.0 mi SSW 11.5 mph 18.4 mph N/A   Clear
6:15 PM 54.3 °F - 28.4 °F 37% 29.98 in 10.0 mi SSW 11.5 mph 17.3 mph N/A   Clear
6:35 PM 52.5 °F - 29.1 °F 41% 29.98 in 10.0 mi South 9.2 mph - N/A   Clear
6:55 PM 50.4 °F - 30.0 °F 46% 29.99 in 10.0 mi South 8.1 mph - N/A   Clear
7:35 PM 50.2 °F - 30.0 °F 46% 29.99 in 10.0 mi South 9.2 mph - N/A   Clear
7:55 PM 50.2 °F - 30.0 °F 46% 29.99 in 10.0 mi South 9.2 mph - N/A   Clear
8:15 PM 50.2 °F - 30.0 °F 46% 29.99 in 10.0 mi South 8.1 mph - N/A   Clear
9:15 PM 50.5 °F - 31.1 °F 47% 29.99 in 10.0 mi South 12.7 mph - N/A   Clear
9:35 PM 50.9 °F - 31.3 °F 47% 30.00 in 10.0 mi South 11.5 mph 17.3 mph N/A   Clear
9:55 PM 50.2 °F - 31.5 °F 49% 29.99 in 10.0 mi South 12.7 mph 16.1 mph N/A   Clear
10:15 PM 49.8 °F - 31.6 °F 50% 29.99 in 10.0 mi SSW 12.7 mph 18.4 mph N/A   Clear
10:35 PM 49.1 °F - 32.0 °F 52% 30.00 in 10.0 mi SSW 11.5 mph - N/A   Clear
10:55 PM 48.2 °F - 32.0 °F 54% 29.99 in 10.0 mi South 11.5 mph - N/A   Clear
11:15 PM 47.8 °F - 32.2 °F 55% 29.98 in 10.0 mi South 11.5 mph 16.1 mph N/A   Clear
11:35 PM 47.7 °F - 32.5 °F 56% 29.98 in 10.0 mi South 12.7 mph - N/A   Clear
11:55 PM 47.3 °F - 32.9 °F 57% 29.98 in 10.0 mi South 10.4 mph - N/A   Clear